This demonstration page uses our WeatherBlox Daily Observations layout. Learn more.

Left ArrowRight Arrow

Hourly Observations for March 27, 2021

Temp ( °F °C ) Dew Point ( °F °C ) Humidity (%) Winds ( mph kmh ) Pressure ( in mb ) Visibility ( mi km ) Precip ( " mm )
12:53 am 00:53 Cloudy with Light Snow 32 undefined 30 -1.1 92 92 SSW 8 13 30.07 1018 5 8 0.00 0.00
1:15 am 01:15 Cloudy 32 undefined 30 -1.1 92 92 SW 10 17 30.10 1019 10 16 0.00 0.00
1:53 am 01:53 Cloudy 32 undefined 30 -1.1 92 92 NW 8 13 30.08 1019 9 14 0.00 0.00
2:00 am 02:00 Cloudy with Light Snow 32 undefined 31 -0.6 96 96 NW 8 13 30.12 1020 8 13 0.00 0.00
2:36 am 02:36 Cloudy with Light Snow 32 undefined 31 -0.6 96 96 W 5 7 30.12 1020 2 3 0.00 0.00
2:46 am 02:46 Cloudy with Light Snow 32 undefined 30 -1 93 93 WNW 6 9 30.13 1020 6 10 N/A
2:53 am 02:53 Cloudy 32 undefined 31 -0.6 96 96 WNW 5 7 30.09 1019 8 13 0.00 0.00
3:53 am 03:53 Cloudy 30 -1.1 29 -1.7 96 96 SW 7 11 30.11 1020 8 13 N/A
4:38 am 04:38 Cloudy 32 undefined 30 -1.1 92 92 NE 3 6 30.16 1021 7 11 N/A
4:53 am 04:53 Cloudy 32 undefined 31 -0.6 96 96 N N/A 30.13 1020 8 13 N/A
5:00 am 05:00 Cloudy 32 undefined 31 -0.6 96 96 N N/A 30.17 1022 7 11 N/A
5:53 am 05:53 Cloudy with Mist and Fog 30 -1.1 29 -1.7 96 96 N N/A 30.15 1021 6 10 0.00 0.00
6:53 am 06:53 Cloudy 30 -1.1 29 -1.7 96 96 W 5 7 30.17 1022 7 11 N/A
7:35 am 07:35 Sunny with Mist and Fog 26 -3.3 25 -3.9 96 96 SSW 9 15 30.24 1024 2 3 N/A
7:45 am 07:45 Sunny with Mist and Fog 26 -3.3 25 -3.9 96 96 SSW 8 13 30.24 1024 3 5 N/A
7:53 am 07:53 Partly Cloudy with Mist and Fog 26 -3.3 25 -3.9 96 96 SSW 7 11 30.19 1022 4 6 N/A
7:57 am 07:57 Partly Cloudy with Mist and Fog 26 -3.3 25 -3.9 96 96 S 9 15 30.24 1024 1 2 N/A
8:00 am 08:00 Mostly Cloudy with Freezing Fog 27 -3 25 -4 93 93 S 8 13 30.23 1024 0 0 N/A
8:11 am 08:11 Mostly Cloudy with Freezing Fog 28 -2.2 27 -2.8 96 96 SW 6 9 30.22 1024 N/A N/A
8:19 am 08:19 Mostly Cloudy with Freezing Fog 28 -2.2 28 -2.2 100 100 SW 6 9 30.22 1024 1 1 N/A
8:23 am 08:23 Partly Cloudy with Mist and Fog 28 -2.2 28 -2.2 100 100 W 3 6 30.22 1024 1 2 N/A
8:25 am 08:25 Partly Cloudy with Mist and Fog 29 -1.7 28 -2.2 96 96 WSW 3 6 30.22 1023 3 4 N/A
8:32 am 08:32 Partly Cloudy with Mist and Fog 29 -1.7 28 -2.2 96 96 WSW 3 6 30.23 1024 5 8 N/A
8:53 am 08:53 Partly Cloudy with Mist and Fog 31 -0.6 28 -2.2 89 89 NW 3 6 30.18 1022 2 3 N/A
8:55 am 08:55 Partly Cloudy with Mist and Fog 30 -1.1 28 -2.2 92 92 WNW 3 6 30.22 1023 1 2 N/A
8:57 am 08:57 Mostly Cloudy with Mist and Fog 30 -1 28 -2 93 93 WNW 5 7 30.22 1023 1 1 N/A
9:08 am 09:08 Mostly Cloudy with Freezing Fog 29 -1.7 28 -2.2 96 96 W 5 7 30.24 1024 0 0 N/A
9:22 am 09:22 Mostly Cloudy with Freezing Fog 29 -1.7 28 -2.2 96 96 WSW 3 6 30.24 1024 N/A N/A
9:44 am 09:44 Mostly Cloudy with Freezing Fog 30 -1.1 29 -1.7 96 96 N N/A 30.23 1024 0 0 N/A
9:53 am 09:53 Mostly Cloudy with Freezing Fog 31 -0.6 30 -1.1 96 96 N N/A 30.21 1023 0 0 N/A
10:05 am 10:05 Mostly Cloudy with Mist and Fog 32 undefined 31 -0.6 96 96 WSW 3 6 30.23 1024 1 2 N/A
10:07 am 10:07 Mostly Cloudy with Mist and Fog 32 undefined 31 -0.6 96 96 WSW 5 7 30.23 1024 3 4 N/A
10:14 am 10:14 Mostly Cloudy 32 undefined 31 -0.6 96 96 WSW 5 7 30.23 1024 7 11 N/A
10:23 am 10:23 Partly Cloudy 33 0.6 32 undefined 96 96 WSW 6 9 30.22 1024 10 16 N/A
10:53 am 10:53 Sunny 37 2.8 33 0.6 86 86 SW 12 19 30.20 1023 10 16 N/A
11:53 am 11:53 Sunny 43 6.1 32 undefined 65 65 SW 12 19 30.19 1022 10 16 N/A
12:53 pm 12:53 Sunny 47 8.3 31 -0.6 54 54 WSW 12 19 30.16 1021 10 16 N/A
1:53 pm 13:53 Sunny 51 10.6 31 -0.6 46 46 W 8 13 30.14 1021 10 16 N/A
2:53 pm 14:53 Sunny 54 12.2 29 -1.7 38 38 W 9 15 30.11 1020 10 16 N/A
3:53 pm 15:53 Sunny 56 13.3 28 -2.2 34 34 WNW 10 17 30.10 1019 10 16 N/A
4:53 pm 16:53 Sunny 57 13.9 26 -3.3 30 30 WNW 13 20 30.07 1018 10 16 N/A
5:53 pm 17:53 Sunny 56 13.3 26 -3.3 32 32 WNW 7 11 30.05 1018 10 16 N/A
6:53 pm 18:53 Sunny 54 12.2 26 -3.3 34 34 WSW 9 15 30.03 1017 10 16 N/A
7:53 pm 19:53 Mostly Cloudy 46 7.8 28 -2.2 50 50 SSW 7 11 30.04 1017 10 16 N/A
8:53 pm 20:53 Clear 43 6.1 29 -1.7 58 58 S 10 17 30.03 1017 10 16 N/A
9:53 pm 21:53 Clear 45 7.2 28 -2.2 52 52 WSW 7 11 30.01 1016 10 16 N/A
10:53 pm 22:53 Clear 45 7.2 28 -2.2 52 52 SSW 12 19 29.99 1016 10 16 N/A
11:53 pm 23:53 Mostly Clear 42 5.6 28 -2.2 58 58 SW 10 17 29.95 1014 10 16 N/A

Powered by AerisWeather